STARLINK-11213, 60309

Orbit data source: Space-Track

STARLINK-11213, 60309 is a payload satellite owned by SpaceX/Seattle (US) in LEO that was launched on Sun, 28 Jul 2024 UTC via an FALCON 9 launch vehicle from the Air Force Western Test Range (AFWTR). Payload-class satellites include a variety of spacecraft equipped with specific instruments for various scientific and technological missions. These include communications satellites like Starlink; space stations such as the ISS; scientific satellites like the Hubble; Earth observation satellites from companies like Planet Labs, Umbra, and HawkEye 360; GPS; miniature CubeSats for education and research; and military/defense satellites.

Loading next visibility...
Identifier
60309, 2024-133J
Orbit
LEO
Country
Flag of USUS
Related business
Manufacturer
SpaceX/Seattle
Mission
Operational Commercial Communications
Bus & Motor
STARLINK V2MD, Unknown motor
Mass
960 kg wet, ~910 kg dry
Launch date (UTC)
2024-07-28 (2 years ago)
Launch vehicle
FALCON 9
Launch site
Air Force Western Test Range (AFWTR)
Object type
Payload
Rocket body
Debris
Shape & HBR
Box + 2 Pan, 18.1 m
Radar Cross Section
36.964 m², Large (>1 m²)

Expand to show TLE details & history
Last TLE update: 1 day ago

TLE from 1 day ago
0 STARLINK-11213
1 60309U 24133J   26170.79193672  .00001221  00000-0  14937-4 0  9995
2 60309  53.1601   2.6562 0001129  61.5661 298.5470 15.69708322109777
Epoch: 2026-06-19T19:00Z
TLE epoch observation values (Epoch: 2026-06-19T19:00:23.332Z)
Latitude
-0.00008°
Longitude
169.54309°
Altitude
360.283 km
Speed
7.695 km/s
True Right ascension
00h 10m 37s
True Declination
0° 00' 00"
Sunlit
Object was in daylight at epoch
Visualization orbit readout
Latitude
Unknown
Longitude
Unknown
Altitude
Unknown
Speed
Unknown
Apparent Right ascension
Unknown
Apparent Declination
Unknown
Sunlit
N/A
Visualization observer readout
Local Sidereal Time
07:15:59
Azimuth
Unknown
Elevation
Unknown
Doppler factor
Unknown
Orbital elements
Apogee altitude
360.753 km
Perigee altitude
359.231 km
Semi-major axis
6,738.129 km
Eccentricity
0.00011
Inclination
53.1601°
RAAN
2.6562°
Arg. of periapsis
61.5661°
True anomaly
298.53563°
Mean anomaly
298.547°
Eccentric anomaly
298.54132°
Mean motion
3.92405 °/min
Orbital period
91.74 mins
BSTAR
0.000014937
Loading maneuver chart data...
Computing Atmospheric mass density...
Loading historical data...
Loading historical data...
Loading historical data...
Loading historical data...
Loading historical data...
Loading historical data...
Loading historical data...

Documentation

Showing up to 5 results
|